Location: Unnamed
(47.6264°N, 122.3366°W)
Time: 05:19:45
(UTC-07:00)

X-37B - Pass Details

Date: 25 June 2021
Orbit: 383 x 392 km, 45.0° (Epoch: 01 July)

Event Time Altitude Azimuth Distance (km) Brightness Sun altitude
Rises 22:24:32 0° 245° (WSW) 2,252 4.6 -9.6°
Reaches altitude 10° 22:26:39 10° 237° (WSW) 1,400 3.5 -9.9°
Maximum altitude 22:29:38 40° 166° (SSE) 582 1.0 -10.2°
Drops below altitude 10° 22:32:37 10° 96° (E) 1,403 3.0 -10.5°
Enters shadow 22:33:09 - 93° (E) 1,616 3.3 -10.5°
